Location: Melizzano
(41.1500°N, 14.5000°E)
Time: 09:09:29
(UTC+00:00)

Okean 2 Rocket - Pass Details

Date: 11 May 2021
Orbit: 616 x 641 km, 82.5° (Epoch: 15 June)

Event Time Altitude Azimuth Distance (km) Brightness Sun altitude
Rises 23:18:53 0° 356° (N) 2,899 7.6 -30.5°
Reaches altitude 10° 23:21:10 10° 1° (N) 1,988 6.6 -30.5°
Enters shadow 23:23:58 36° 22° (NNE) 992 4.5 -30.4°
